GALAXY 30 (WAAS/PRN 135)

Last updated on Sat Sep 05 2026 00:03:32 GMT+0000 (Coordinated Universal Time)

1 46114U 20056C 26247.57112508 .00000000 00000+0 00000+0 0 9997 2 46114 0.0209 136.7759 0002591 43.7216 243.7921 1.00271134 22086
UTC large
Height (km)
Speed (km/s)
/
Latitude / Longitude
Inclination (degrees)
Orbital Period (minutes)
Azimuth
Elevation
Range (km)
Doppler Factor

Next 0 passes for location: London (51.5072 / 0.1276)

No passes found over London.
GALAXY 30 (WAAS/PRN 135)